Simultaneous Nadir Overpasses (SNOs) Predictions

Prediction of SNOs between NOAA-15 and METOP-C Satellite Orbit:

Table of predicted SNOs for the next 14.0 days since TLE Epoch: 1/3/2020
Index Date (NOAA-15) Time (NOAA-15) Lat,Lon (NOAA-15) SZA (NOAA-15 ) Date (METOP-C) Time (METOP-C) Lat,Lon (METOP-C) SZA (METOP-C ) Distance(km) Time Diff (sec)
1 01/07/2020 14:36:17 -80.87, 175.66 75.38 01/07/2020 14:35:03 -80.87, 175.58 75.41 1.56 74
2 01/07/2020 15:26:45 80.88, -17.10 104.62 01/07/2020 15:25:43 80.87, -17.05 104.59 1.62 62
3 01/07/2020 16:17:19 -80.86, 150.62 75.38 01/07/2020 16:16:23 -80.88, 150.51 75.39 2.71 56
4 01/07/2020 17:07:47 80.87, -42.15 104.62 01/07/2020 17:07:03 80.88, -42.12 104.62 1.43 44
5 01/07/2020 17:58:22 -80.87, 125.21 75.39 01/07/2020 17:57:44 -80.87, 125.08 75.41 2.39 38
6 01/07/2020 18:48:50 80.88, -67.55 104.60 01/07/2020 18:48:24 80.88, -67.55 104.59 0.02 26
7 01/07/2020 19:39:25 -80.88, 99.81 75.41 01/07/2020 19:39:05 -80.87, 99.66 75.43 2.81 20
8 01/07/2020 20:29:53 80.88, -92.95 104.59 01/07/2020 20:29:45 80.87, -92.98 104.57 1.38 8
9 01/07/2020 21:20:28 -80.88, 74.41 75.42 01/07/2020 21:20:25 -80.88, 74.59 75.41 3.10 3
10 01/07/2020 22:10:55 80.87,-118.00 104.59 01/07/2020 22:11:05 80.89,-118.05 104.60 1.64 10
11 01/07/2020 23:01:31 -80.89, 49.01 75.44 01/07/2020 23:01:46 -80.88, 49.16 75.43 2.93 15
12 01/07/2020 23:51:58 80.88,-143.40 104.57 01/07/2020 23:52:26 80.88,-143.48 104.58 1.35 28
13 01/08/2020 00:42:33 -80.88, 23.96 75.44 01/08/2020 00:43:06 -80.89, 24.09 75.41 2.63 33
14 01/08/2020 01:33:01 80.89,-168.81 104.56 01/08/2020 01:33:47 80.88,-168.91 104.55 2.20 46
15 01/08/2020 02:23:36 -80.89, -1.44 75.45 01/08/2020 02:24:27 -80.89, -1.34 75.43 1.76 51
16 01/08/2020 03:14:03 80.88, 166.15 104.55 01/08/2020 03:15:07 80.89, 166.02 104.58 2.64 64




NCC Satellite Simultaneous Nadir Overpasses (SNOs) Prediction Service
